Weather History for KHST - April, 2014

Change the Weather History Date:

Friday, April 11, 2014

  Actual Average (KMIA) Record (KMIA)
Temperature  
Mean Temperature 70 °F 75 °F  
Max Temperature 80 °F 83 °F 92 °F (1999)
Min Temperature 62 °F 68 °F 51 °F (1938)
Degree Days  
Heating Degree Days 0 0  
Month to date heating degree days 0  
Since 1 July heating degree days 127  
Cooling Degree Days 6 10  
Month to date cooling degree days 106  
Year to date cooling degree days 675  
Growing Degree Days 20 (Base 50)    
Moisture  
Dew Point 63 °F    
Average Humidity 70    
Maximum Humidity 89    
Minimum Humidity 54    
Precipitation  
Precipitation 0.00 in 0.10 in 1.25 in (1933)
Month to date precipitation 1.13  
Year to date precipitation 8.00  
Snow  
Snow 0.00 in - - ()
Month to date snowfall  
Since 1 July snowfall  
Snow Depth -    
Sea Level Pressure  
Sea Level Pressure 30.18 in    
Wind  
Wind Speed 7 mph (East)    
Max Wind Speed 12 mph    
Max Gust Speed -    
Visibility 10 miles    
Events      
T = Trace of Precipitation, MM = Missing Value Source: NWS Daily Summary

Daily Weather History Graph

Daily Weather History Graph

Search for Another Location

Airport or City:

Trip Planner

Search our weather history database for the weather conditions in past years. The results will help you decide how hot, cold, wet, or windy it might be!

Date:

Astronomy

Apr. 11, 2014 Rise Set
Actual Time 7:02 AM EDT 7:42 PM EDT
Civil Twilight 6:39 AM EDT 8:06 PM EDT
Nautical Twilight 6:12 AM EDT 8:33 PM EDT
Astronomical Twilight 5:44 AM EDT 9:01 PM EDT
Moon 4:40 PM EDT (4/11) 4:35 AM EDT (4/11)
Length of Visible Light 13h 26m
Length of Day
12h 39m
Waxing Gibbous, 87% of the Moon is Illuminated
Apr 11
Waxing Gibbous
Apr 15
Full
Apr 22
Last Quarter
Apr 29
New
May 6
First Quarter

Hourly Weather History & Observations

Time (EDT) Temp. Dew Point Humidity Pressure Visibility Wind Dir Wind Speed Gust Speed Precip Events Conditions
12:58 AM 72.0 °F 58.1 °F 62% 30.22 in 10.0 mi East 9.2 mph - N/A   Partly Cloudy
1:58 AM 70.7 °F 59.9 °F 69% 30.20 in 10.0 mi East 5.8 mph - N/A   Clear
2:58 AM 69.6 °F 59.5 °F 70% 30.19 in 10.0 mi East 5.8 mph - N/A   Clear
3:58 AM 69.8 °F 59.7 °F 70% 30.17 in 10.0 mi East 4.6 mph - N/A   Clear
4:58 AM 67.8 °F 60.4 °F 77% 30.17 in 10.0 mi East 1.2 mph - N/A   Clear
5:58 AM 63.0 °F 59.5 °F 89% 30.17 in 10.0 mi NNW 5.8 mph - N/A   Clear
6:58 AM 62.2 °F 58.1 °F 86% 30.19 in 10.0 mi NW 3.5 mph - N/A   Clear
7:58 AM 63.0 °F 59.7 °F 89% 30.20 in 10.0 mi NW 2.3 mph - N/A   Clear
8:58 AM 71.6 °F 62.1 °F 72% 30.21 in 10.0 mi North 2.3 mph - N/A   Clear
9:58 AM 77.7 °F 60.6 °F 55% 30.23 in 10.0 mi East 8.1 mph - N/A   Clear
10:58 AM 78.3 °F 61.9 °F 57% 30.23 in 10.0 mi ESE 10.4 mph - 0.00 in   Clear
11:58 AM 79.3 °F 61.3 °F 54% 30.22 in 10.0 mi East 8.1 mph - N/A   Clear
12:58 PM 79.0 °F 62.6 °F 57% 30.20 in 10.0 mi ESE 8.1 mph - N/A   Partly Cloudy
1:58 PM 79.5 °F 64.0 °F 59% 30.17 in 10.0 mi ESE 11.5 mph - N/A   Partly Cloudy
2:58 PM 79.2 °F 64.2 °F 60% 30.16 in 10.0 mi East 9.2 mph - N/A   Clear
3:58 PM 78.1 °F 65.3 °F 65% 30.14 in 10.0 mi East 11.5 mph - N/A   Partly Cloudy
4:58 PM 78.4 °F 63.7 °F 60% 30.13 in 10.0 mi ESE 8.1 mph - N/A   Clear
5:58 PM 77.4 °F 65.8 °F 67% 30.12 in 10.0 mi East 9.2 mph - N/A   Clear
6:58 PM 76.1 °F 65.8 °F 70% 30.13 in 10.0 mi East 6.9 mph - N/A   Clear
7:58 PM 74.1 °F 66.4 °F 77% 30.14 in 10.0 mi ESE 4.6 mph - N/A   Clear
8:58 PM 72.5 °F 67.1 °F 83% 30.15 in 10.0 mi East 4.6 mph - N/A   Clear
9:58 PM 74.8 °F 67.1 °F 77% 30.16 in 10.0 mi East 8.1 mph - N/A   Mostly Cloudy
10:58 PM 74.5 °F 66.9 °F 77% 30.15 in 10.0 mi East 5.8 mph - N/A   Clear
11:58 PM 74.7 °F 67.3 °F 78% 30.15 in 10.0 mi East 8.1 mph - N/A   Clear